Regional Weather Roundup
Issued by NWS Green Bay, WI

Home | Current Version | Previous Version | Graphics & Text | Print | Product List | Glossary Off
Versions: 1 2 3 4 5 6 7 8 9 10 11 12 13 14 15 16 17 18 19 20 21 22 23 24 25 26 27 28 29 30 31 32 33 34 35 36 37 38 39 40 41 42 43 44 45 46 47 48 49 50

000
ASUS43 KGRB 301700
RWRGRB

NORTH-CENTRAL AND NORTHEAST WISCONSIN REGIONAL WEATHER ROUNDUP
NATIONAL WEATHER SERVICE GREEN BAY WI
1200 PM CDT TUE JUN 30 2015

WIZ005-009-010>012-018-019-301800-
NORTH CENTRAL WISCONSIN

CITY           SKY/WX    TMP DP  RH WIND       PRES   REMARKS
IRONWOOD       CLOUDY    52  48  87 N9        29.96S
MANITOWISH WTR NOT AVBL
ARBOR VITAE    NOT AVBL
EAGLE RIVER    NOT AVBL
LAND O LAKES   NOT AVBL
RHINELANDER    CLOUDY    59  51  75 N10       29.94R
PHILLIPS       CLOUDY    58  51  76 N8        29.95S
ANTIGO         NOT AVBL
TOMAHAWK       NOT AVBL
MERRILL        NOT AVBL
$$

WIZ013-073-301800-
NORTHEAST WISCONSIN

CITY           SKY/WX    TMP DP  RH WIND       PRES   REMARKS
IRON MOUNTAIN  CLOUDY    61  51  70 NW15      29.87S
MARINETTE      CLOUDY    63  52  67 N10       29.84S
$$

WIZ017-030-035>037-045-301800-
CENTRAL WISCONSIN

CITY           SKY/WX    TMP DP  RH WIND       PRES   REMARKS
MEDFORD        NOT AVBL
WAUSAU         PTSUNNY   69  53  56 N8        29.88R
MOSINEE        NOT AVBL
MARSHFIELD     PTSUNNY   69  54  58 N12       29.90S
WISC RAPIDS    MOSUNNY   72  55  55 N9G20     29.90R
STEVENS POINT  NOT AVBL
WAUPACA        NOT AVBL
SHAWANO        NOT AVBL
CLINTONVILLE   CLOUDY    68  54  60 N8        29.86S
$$

WIZ038-039-048-051-301800-
FOX VALLEY

CITY           SKY/WX    TMP DP  RH WIND       PRES   REMARKS
NWS GREEN BAY  CLOUDY    68  57  68 N10G18    29.85R
APPLETON       PTSUNNY   66  55  68 N10G17    29.86R
OSHKOSH        CLOUDY    69  58  67 NW10      29.84S
FOND DU LAC    CLOUDY    69  58  67 N12       29.85R
$$

WIZ022-050-052-301800-
EAST CENTRAL WISCONSIN

CITY           SKY/WX    TMP DP  RH WIND       PRES   REMARKS
STURGEON BAY   CLOUDY    57  52  82 N13       29.87R
MANITOWOC      NOT AVBL
SHEBOYGAN      CLOUDY    69  59  70 N10       29.82R
$$

LMZ563-521-522-541>543-301800-
LAKESHORE

STATION/POSITION TIME  TEMP    WIND        PRES    VSBY  WAVE
                       AIR SEA DIR/SP/G                  HT/PER
                 (UTC) (F)     (DEG/KT/KT) (MB)    (MI)  (FT/S)
SHEBOYGAN LKSHOR 1600   59      10/ 14/ 15 1009.7R
KEWAUNEE LKSHORE 1600   61      10/  8/ 14 1009.5R
ALGOMA MARINA    1610           20/ 14/ 21   N/A
NORTHPORT PIER   1600   56     340/ 18/ 21 1010.5S
N MID LAKE BUOY  1550   52 49  330/ 14/ 16 1010.1R         2/ 3
SISTER BAY LKSHO 1614   56     360/ 16/ 22   N/A
CHAMBERS ISLAND  1600   58     340/ 13/ 15 1010.8S
MENOMINEE LKSHOR 1600   60     340/ 13/ 15 1011.3R
$$



USA.gov is the U.S. government's official web portal to all federal, state and local government web resources and services.